Tracking 35331 objects as of 15-Sep-2026
HD Live streaming from Space Station
objects crossing your sky now

OPS 4029

Track OPS 4029 now!
OPS 4029 is classified as:


NORAD ID: 12930
Int'l Code: 1981-107A
Launch date: October 31, 1981
Source: United States (US)
Launch site: AIR FORCE EASTERN TEST RANGE (AFETR)
Your satellite tracking list
Your tracking list is empty




NASA's NSSDC Master Catalog

Two Line Element Set (TLE):
1 12930U 81107A   26257.24344417 -.00000442  00000-0  00000-0 0  9994
2 12930   5.6461   2.4466 1042832  45.1067 154.4163  1.00349793  8765
Source of the keplerian elements: AFSPC